CAPE
nan nan nan nan nan nan nan nan nan nan nan nan nan nan nan nan nan nan nan nan nan nan nan nan nan nan nan nan nan nan nan nan nan nan nan nan nan nan nan nan nan nan nan nan nan nan nan nan nan 0 7 20 38 38 62 94 94 122 167 206 206 235 268 291 291 300 278 250 236 236 206 164 93 93 36 14 5 5 3 4 4 4 1 1 1 13
nan nan nan nan nan nan nan nan nan nan nan nan nan nan nan nan nan nan nan nan nan nan nan nan nan nan nan nan nan nan nan nan nan nan nan nan nan nan nan nan nan nan nan nan nan nan nan nan nan nan nan 2 10 10 28 52 52 88 125 158 158 214 255 296 296 316 302 290 249 249 202 131 56 56 34 19 14 14 13 12 12 11 9 12 12 34
37 7 nan nan nan nan nan nan nan nan nan nan nan nan nan nan nan nan nan nan nan nan nan nan nan nan nan nan nan nan nan nan nan nan nan nan nan nan nan nan nan nan nan nan nan nan nan nan nan nan nan nan nan nan 1 14 14 34 57 89 89 126 167 223 223 245 253 243 199 199 130 30 1 1 24 29 28 28 25 18 18 24 26 33 33 62
31 29 2 nan nan nan nan nan nan nan nan nan nan nan nan nan nan nan nan nan nan nan nan nan nan nan nan nan nan nan nan nan nan nan nan nan nan nan nan nan nan nan nan nan nan nan nan nan nan nan nan nan nan nan nan nan nan 0 8 19 19 42 70 103 103 131 146 137 99 99 46 2 nan nan 6 26 19 19 7 5 5 28 43 58 58 79
19 32 37 14 14 nan nan nan nan nan nan nan nan nan nan nan nan nan nan nan nan nan nan nan nan nan nan nan nan nan nan nan nan nan nan nan nan nan nan nan nan nan nan nan nan nan nan nan nan nan nan nan nan nan nan nan nan nan nan nan nan 1 10 25 25 38 46 46 38 38 20 0 nan nan 1 10 1 1 3 8 8 27 46 67 67 97
6 16 37 54 54 28 nan nan nan nan nan nan nan nan nan nan nan nan nan nan nan nan nan nan nan nan nan nan nan nan nan nan nan nan nan nan nan nan nan nan nan nan nan nan nan nan nan nan nan nan nan nan nan nan nan nan nan nan nan nan nan nan nan nan nan 1 3 8 13 13 13 3 nan nan nan 1 nan nan 7 22 22 40 49 62 62 98
4 8 16 34 34 56 33 nan nan nan nan nan nan nan nan nan nan nan nan nan nan nan nan nan nan nan nan nan nan nan nan nan nan nan nan nan nan nan nan nan nan nan nan nan nan nan nan nan nan nan nan nan nan nan nan nan nan nan nan nan nan nan nan nan nan nan nan nan 1 1 5 2 nan nan nan nan nan nan 1 19 19 42 42 50 50 85
10 6 4 6 6 11 23 49 51 51 12 nan nan nan nan nan nan nan nan nan nan nan nan nan nan nan nan nan nan nan nan nan nan nan nan nan nan nan nan nan nan nan nan nan nan nan nan nan nan nan nan nan nan nan nan nan nan nan nan nan nan nan nan nan nan nan nan nan nan nan nan nan nan nan nan nan nan nan nan nan nan 14 40 43 43 58
12 9 7 7 7 13 14 17 19 19 44 31 1 1 nan nan nan nan nan nan nan nan nan nan nan nan nan nan nan nan nan nan nan nan nan nan nan nan nan nan nan nan nan nan nan nan nan nan nan nan nan nan nan nan nan nan nan nan nan nan nan nan nan nan nan nan nan nan nan nan nan nan nan nan nan nan nan nan nan nan nan nan 15 38 38 60
10 12 11 10 10 16 21 9 1 1 7 29 19 19 nan nan nan nan nan nan nan nan nan nan nan nan nan nan nan nan nan nan nan nan nan nan nan nan nan nan nan nan nan nan nan nan nan nan nan nan nan nan nan nan nan nan nan nan nan nan nan nan nan nan nan nan nan nan nan nan nan nan nan nan nan nan nan nan nan nan nan nan nan 10 10 35
9 10 12 11 11 13 15 6 3 3 9 15 25 25 17 8 20 20 12 nan nan nan nan nan nan nan nan nan nan nan nan nan nan nan nan nan nan nan nan nan nan nan nan nan nan nan nan nan nan nan nan nan nan nan nan nan nan nan nan nan nan nan nan nan nan nan nan nan nan nan nan nan nan nan nan nan nan nan nan nan nan nan nan nan nan 6
13 10 9 9 9 10 10 1 8 8 13 8 9 9 15 22 24 24 24 38 38 33 15 nan nan nan nan nan nan nan nan nan nan nan nan nan nan nan nan nan nan nan nan nan nan nan nan nan nan nan nan nan nan nan nan nan nan nan nan nan nan nan nan nan nan nan nan nan nan nan nan nan nan nan nan nan nan nan nan nan nan nan nan nan nan nan
15 13 9 8 8 9 7 3 21 21 16 8 5 5 4 1 3 3 10 17 17 33 47 56 56 5 nan nan nan nan nan nan nan nan nan nan nan nan nan nan nan nan nan nan nan nan nan nan nan nan nan nan nan nan nan nan nan nan nan nan nan nan nan nan nan nan nan nan nan nan nan nan nan nan nan nan nan nan nan nan nan nan nan nan nan nan
14 14 10 7 7 8 13 21 40 40 17 17 19 19 18 12 10 10 12 12 12 9 12 24 24 44 6 nan nan nan nan nan nan nan nan nan nan nan nan nan nan nan nan nan nan nan nan nan nan nan nan nan nan nan nan nan nan nan nan nan nan nan nan nan nan nan nan nan nan nan nan nan nan nan nan nan nan nan nan nan nan nan nan nan nan nan
13 15 10 10 10 17 28 46 28 28 16 20 22 22 19 16 13 13 12 13 13 9 8 7 7 19 18 nan nan nan nan nan nan nan nan nan nan nan nan nan nan nan nan nan nan nan nan nan nan nan nan nan nan nan nan nan nan nan nan nan nan nan nan nan nan nan nan nan nan nan nan nan nan nan nan nan nan nan nan nan nan nan nan nan nan nan
12 10 8 15 15 20 36 35 19 19 14 17 19 19 18 18 18 18 15 13 13 9 8 8 8 8 13 1 6 6 10 27 27 27 9 nan nan nan nan nan nan nan nan nan nan nan nan nan nan nan nan nan nan nan nan nan nan nan nan nan nan nan nan nan nan nan nan nan nan nan nan nan nan nan nan nan nan nan nan nan nan nan nan nan nan nan
13 10 7 10 10 13 17 18 15 15 15 15 17 17 20 24 26 26 22 15 15 8 8 10 10 12 12 15 nan nan nan 8 21 21 32 22 nan nan nan nan nan nan nan nan nan nan nan nan nan nan nan nan nan nan nan nan nan nan nan nan nan nan nan nan nan nan nan nan nan nan nan nan nan nan nan nan nan nan nan nan nan nan nan nan nan nan
17 18 14 9 9 8 7 8 9 9 10 17 21 21 23 28 30 30 23 15 15 11 10 10 10 17 13 15 12 12 1 11 8 8 8 19 4 4 nan nan nan nan nan nan nan nan nan nan nan nan nan nan nan nan nan nan nan nan nan nan nan nan nan nan nan nan nan nan nan nan nan nan nan nan nan nan nan nan nan nan nan nan nan nan nan nan
14 19 16 8 8 5 4 5 7 7 8 13 19 19 21 26 28 28 24 21 21 15 14 12 12 14 18 19 13 13 9 16 13 13 7 7 1 1 nan nan nan nan nan nan nan nan nan nan nan nan nan nan nan nan nan nan nan nan nan nan nan nan nan nan nan nan nan nan nan nan nan nan nan nan nan nan nan nan nan nan nan nan nan nan nan nan
10 13 10 4 4 2 3 5 6 6 8 11 14 14 14 18 20 20 21 24 24 21 17 15 15 16 19 17 8 8 7 13 10 10 5 11 nan nan nan nan nan nan nan nan nan nan nan nan nan nan nan nan nan nan nan nan nan nan nan nan nan nan nan nan nan nan nan nan nan nan nan nan nan nan nan nan nan nan nan nan nan nan nan nan nan nan
6 4 3 nan nan nan 1 4 6 6 10 9 5 5 6 10 13 13 19 23 23 23 21 17 17 18 18 11 9 9 8 11 6 6 6 7 nan nan nan nan nan nan nan nan nan nan nan nan nan nan nan nan nan nan nan nan nan nan nan nan nan nan nan nan nan nan nan nan nan nan nan nan nan nan nan nan nan nan nan nan nan nan nan nan nan nan
3 2 nan nan nan nan 1 1 3 3 6 6 0 0 4 5 6 6 10 17 17 18 20 16 16 19 16 12 12 12 13 12 7 7 7 2 nan nan nan nan nan nan nan nan nan nan nan nan nan nan nan nan nan nan nan nan nan nan nan nan nan nan nan nan nan nan nan nan nan nan nan nan nan nan nan nan nan nan nan nan nan nan nan nan nan nan
1 4 3 1 1 1 1 0 1 1 4 2 2 2 7 6 4 4 9 18 18 22 22 18 18 18 15 18 24 24 25 22 17 17 3 1 nan nan nan nan nan nan nan nan nan nan nan nan nan nan nan nan nan nan nan nan nan nan nan nan nan nan nan nan nan nan nan nan nan nan nan nan nan nan nan nan nan nan nan nan nan nan nan nan nan nan
1 8 13 13 13 11 10 6 4 4 7 5 3 3 3 3 8 8 19 32 32 31 19 14 14 9 13 26 33 33 33 28 18 18 8 23 nan nan nan nan nan nan nan nan nan nan nan nan nan nan nan nan nan nan nan nan nan nan nan nan nan nan nan nan nan nan nan nan nan nan nan nan nan nan nan nan nan nan nan nan nan nan nan nan nan nan
10 18 17 13 13 19 15 9 14 14 10 2 1 1 nan 5 31 31 47 47 47 32 17 8 8 6 8 23 26 26 26 19 19 19 23 31 nan nan nan nan nan 0 nan nan nan nan nan nan nan nan nan nan nan nan nan nan nan nan nan nan nan nan nan nan nan nan nan nan nan nan nan nan nan nan nan nan nan nan nan nan nan nan nan nan nan nan
36 25 13 11 11 22 25 24 25 25 25 10 18 18 23 32 34 34 34 31 31 23 13 3 3 2 3 4 11 11 23 15 28 28 40 25 2 2 nan nan nan 0 nan nan nan nan nan nan nan nan nan nan 0 0 nan nan nan nan nan nan nan nan nan nan nan nan nan nan nan nan nan nan nan nan nan nan nan nan nan nan nan nan nan nan nan nan
36 26 19 18 18 19 21 24 28 28 30 29 13 13 14 21 22 22 17 20 20 23 14 4 4 2 1 nan 3 3 18 25 27 27 32 19 6 6 nan nan nan nan nan nan nan nan nan nan nan nan nan nan nan nan nan nan nan nan nan nan nan nan nan nan nan nan nan nan nan nan nan nan nan nan nan nan nan nan nan nan nan nan nan nan nan nan
21 15 14 15 15 16 19 21 23 23 24 28 34 34 23 12 7 7 10 23 23 30 22 12 12 7 3 0 1 1 8 20 18 18 9 10 3 3 nan nan nan nan nan nan nan nan nan nan nan nan nan nan nan nan nan nan nan nan nan nan nan nan nan nan nan nan nan nan nan nan nan nan nan nan nan nan nan nan nan nan nan nan nan nan nan nan
11 9 10 14 14 16 18 18 17 17 19 24 28 28 21 8 6 6 10 23 23 18 17 19 19 14 11 7 4 4 6 14 12 12 1 8 nan nan nan nan nan nan nan nan nan nan nan nan nan nan nan nan nan nan nan nan nan nan nan nan nan nan nan nan nan nan nan nan nan nan nan nan nan nan nan nan nan nan nan nan nan nan nan nan nan nan
1 10 10 15 15 18 14 4 8 8 16 16 18 18 14 10 11 11 12 15 15 8 8 16 16 15 14 16 9 9 5 11 2 2 0 31 nan nan nan nan nan nan nan nan nan nan nan nan nan nan nan nan nan nan nan nan nan nan nan nan nan nan nan nan nan nan nan nan nan nan nan nan nan nan nan nan nan nan nan nan nan nan nan nan nan nan
nan nan nan nan nan nan nan nan 0 0 9 13 10 10 5 6 14 14 18 13 13 11 8 11 11 14 17 17 10 10 7 4 14 14 22 36 3 3 nan nan nan nan nan nan nan nan nan nan nan nan nan nan nan nan nan nan nan nan nan nan nan 0 nan nan nan nan nan nan nan nan nan nan nan nan nan nan nan nan nan nan nan nan nan nan nan nan
2 3 0 nan nan nan nan nan nan nan nan nan nan nan 0 0 nan nan 0 3 3 10 17 21 21 21 23 20 19 19 29 30 30 30 22 29 22 22 nan nan nan nan nan nan nan nan 1 nan nan nan nan nan nan nan nan nan nan nan nan nan nan nan nan nan nan nan nan nan nan nan nan nan nan nan nan nan nan nan nan nan nan nan nan nan nan nan
7 4 3 3 3 nan nan nan nan nan nan nan nan nan nan nan nan nan nan nan nan 0 4 11 11 14 15 15 12 12 13 16 19 19 7 3 17 17 12 11 11 2 nan nan nan nan nan nan nan nan nan nan nan nan nan nan nan nan nan nan nan nan nan nan nan nan nan nan nan nan nan nan nan nan nan nan nan nan nan nan nan nan nan nan nan nan
4 4 3 1 1 nan nan 0 nan nan nan nan nan nan nan nan nan nan nan nan nan nan nan 2 2 7 8 7 5 5 3 3 8 8 8 nan 3 3 7 17 17 23 8 nan nan nan nan nan nan nan nan nan nan nan nan nan nan nan nan nan nan nan nan nan nan nan nan nan nan nan nan nan nan nan nan nan nan nan nan nan nan nan nan nan nan nan
6 6 3 1 1 0 2 nan nan nan 2 1 0 0 nan nan nan nan nan nan nan nan nan nan nan 1 5 4 3 3 1 1 3 3 6 nan 0 0 2 8 8 24 35 8 8 nan nan nan nan nan nan nan nan nan nan nan nan nan nan nan nan nan nan nan nan nan nan nan nan nan nan nan nan nan nan nan nan nan nan nan nan nan nan nan nan nan
6 6 6 3 3 4 4 7 7 7 4 nan nan nan 0 nan nan nan nan nan nan nan nan nan nan nan 0 1 2 2 3 1 1 1 2 0 0 0 1 4 4 12 25 30 30 16 nan nan nan nan nan nan nan nan nan nan nan nan nan nan nan nan nan nan nan nan nan nan nan nan nan nan nan nan nan nan nan nan nan nan nan nan nan nan nan nan
6 6 6 5 5 7 9 6 6 6 7 6 2 2 0 nan nan nan nan nan nan nan nan nan nan nan 2 1 2 2 3 1 nan nan nan nan 0 0 1 3 3 7 15 25 25 33 18 nan nan nan nan nan nan nan nan nan nan nan nan nan nan nan nan nan nan nan nan nan nan nan nan nan nan nan nan nan nan nan nan nan nan nan nan nan nan nan
4 6 7 7 7 8 7 7 8 8 10 10 10 10 1 nan nan nan nan nan nan nan nan nan nan nan nan 1 1 1 0 nan nan nan nan nan nan nan 1 2 2 6 12 22 22 31 34 27 27 7 nan nan nan nan nan nan nan nan nan nan nan nan nan nan nan nan nan nan nan nan nan nan nan nan nan nan nan nan nan nan nan nan nan nan nan nan
3 4 5 8 8 8 7 7 8 8 11 13 10 10 4 3 3 3 0 0 0 nan nan nan nan nan nan nan nan nan nan nan nan nan nan nan nan nan nan 3 3 3 7 17 17 23 28 30 30 24 1 nan nan nan nan nan nan nan nan nan nan nan nan nan nan nan nan nan nan nan nan nan nan nan nan nan nan nan nan nan nan nan nan nan nan nan
3 4 5 7 7 4 4 5 6 6 7 12 13 13 13 14 7 7 2 6 6 nan nan nan nan nan nan nan nan nan nan nan nan nan nan nan nan nan nan 1 1 3 5 8 8 17 19 23 23 24 13 0 nan nan nan nan nan nan nan nan nan nan nan nan nan nan nan nan nan nan nan nan nan nan nan nan nan nan nan nan nan nan nan nan nan nan
2 2 3 4 4 4 3 3 4 4 5 6 5 5 8 14 13 13 13 8 8 nan nan nan nan nan nan nan nan nan nan nan nan nan nan nan nan nan nan 0 0 7 8 10 10 11 13 14 14 19 18 7 nan nan nan nan nan nan nan nan nan nan nan nan nan nan nan nan nan nan nan nan nan nan nan nan nan nan nan nan nan nan nan nan nan nan
6 3 2 3 3 3 2 1 4 4 4 3 4 4 6 10 11 11 9 9 9 2 nan 3 3 2 nan 0 nan nan nan nan nan nan nan nan nan nan nan nan nan 13 18 16 16 12 11 9 9 15 18 13 10 10 nan nan nan nan nan nan nan nan nan nan nan nan nan nan nan nan nan nan nan nan nan nan nan nan nan nan nan nan nan nan nan nan
4 3 2 2 2 1 1 3 3 3 3 3 3 3 3 6 9 9 10 10 10 10 11 12 12 11 5 0 nan nan nan nan nan nan nan nan nan nan nan nan nan 2 20 23 23 18 17 19 19 19 17 15 16 16 11 nan nan nan nan nan nan nan nan nan nan nan nan nan nan nan nan nan nan nan nan nan nan nan nan nan nan nan nan nan nan nan
4 3 1 1 1 1 2 2 2 2 2 3 3 3 2 3 7 7 9 8 8 10 11 11 11 10 9 3 0 0 nan nan nan nan nan nan nan nan nan nan nan nan 6 24 24 25 26 31 31 22 18 13 18 18 21 nan nan nan nan nan nan nan nan nan nan nan nan nan nan nan nan nan nan nan nan nan nan nan nan nan nan nan nan nan nan nan
2 2 2 2 2 1 1 2 2 2 1 1 1 1 1 2 7 7 7 6 6 8 8 9 9 10 6 4 2 2 nan nan nan nan nan nan nan nan nan nan nan nan nan 8 8 23 30 30 30 21 1 5 19 19 24 8 8 nan nan nan nan nan nan nan nan nan nan nan nan nan nan nan nan nan nan nan nan nan nan nan nan nan nan nan nan nan
1 1 1 1 1 1 3 2 1 1 1 1 0 0 1 0 1 1 4 3 3 5 7 9 9 10 8 6 3 3 nan nan nan nan nan nan nan nan nan nan nan nan nan 0 0 9 20 28 28 31 26 19 23 23 24 22 22 6 nan nan nan nan nan nan nan nan nan nan nan nan nan nan nan nan nan nan nan nan nan nan nan nan nan nan nan nan
1 1 1 0 0 1 1 1 1 1 1 1 0 0 0 0 0 0 1 2 2 2 4 6 6 12 12 8 5 5 2 nan nan nan nan nan nan nan nan nan nan nan nan 0 0 4 6 4 4 9 22 30 27 27 18 20 20 18 2 nan nan nan nan nan nan nan nan nan nan nan nan nan nan nan nan nan nan nan nan nan nan nan nan nan nan nan
1 1 1 1 1 1 1 1 1 1 0 0 0 0 0 nan 1 1 1 1 1 1 3 3 3 6 7 8 6 6 6 3 nan nan nan nan nan nan nan nan nan nan nan 0 0 0 1 nan nan nan 9 25 29 29 24 19 19 24 12 1 1 0 0 nan nan nan nan nan nan nan nan nan nan nan nan nan nan nan nan nan nan nan nan nan nan nan
nan 0 0 0 0 0 0 0 0 0 0 0 0 0 nan 2 9 9 1 0 0 1 1 2 2 3 3 5 4 4 11 11 1 1 nan nan nan nan nan nan nan nan nan nan nan nan nan nan nan nan 0 12 23 23 31 28 28 14 10 3 3 3 2 nan nan nan nan nan nan nan nan nan nan nan nan nan nan nan nan nan nan nan nan nan nan nan
nan nan nan nan nan nan nan nan 0 0 nan 0 0 0 nan nan nan nan nan 0 0 0 0 1 1 1 3 3 4 4 10 13 8 8 0 nan nan nan nan nan nan 0 0 nan nan nan nan nan nan nan nan 1 4 4 17 22 22 14 10 7 7 3 2 nan nan nan nan nan nan nan nan nan nan nan nan nan nan nan nan nan nan nan nan nan nan nan
0 0 nan nan nan nan nan nan nan nan nan nan nan nan nan nan nan nan nan nan nan nan 0 0 0 1 2 2 4 4 13 17 19 19 7 2 4 4 4 7 7 3 2 nan nan nan nan nan nan nan nan 1 nan nan 0 8 8 12 13 12 12 6 5 1 1 nan nan nan nan nan nan nan nan nan nan nan nan nan nan nan nan nan nan nan nan nan
CIN
nan nan nan nan nan nan nan nan nan nan nan nan nan nan nan nan nan nan nan nan nan nan nan nan nan nan nan nan nan nan nan nan nan nan nan nan nan nan nan nan nan nan nan nan nan nan nan nan nan -449 -399 -350 -307 -307 -261 -215 -215 -179 -135 -106 -106 -88 -70 -60 -60 -51 -51 -53 -45 -45 -45 -55 -91 -91 -136 -159 -168 -168 -155 -130 -130 -107 -103 -82 -82 -19
nan nan nan nan nan nan nan nan nan nan nan nan nan nan nan nan nan nan nan nan nan nan nan nan nan nan nan nan nan nan nan nan nan nan nan nan nan nan nan nan nan nan nan nan nan nan nan nan nan nan nan -405 -364 -364 -317 -270 -270 -218 -173 -141 -141 -98 -72 -54 -54 -43 -22 -22 -42 -42 -51 -80 -121 -121 -141 -152 -144 -144 -127 -109 -109 -91 -83 -65 -65 -12
-1 -7 nan nan nan nan nan nan nan nan nan nan nan nan nan nan nan nan nan nan nan nan nan nan nan nan nan nan nan nan nan nan nan nan nan nan nan nan nan nan nan nan nan nan nan nan nan nan nan nan nan nan nan nan -375 -334 -334 -292 -250 -204 -204 -159 -118 -81 -81 -69 -64 -62 -69 -69 -94 -126 -162 -162 -135 -129 -123 -123 -112 -97 -97 -81 -69 -49 -49 -8
-0 -0 -5 nan nan nan nan nan nan nan nan nan nan nan nan nan nan nan nan nan nan nan nan nan nan nan nan nan nan nan nan nan nan nan nan nan nan nan nan nan nan nan nan nan nan nan nan nan nan nan nan nan nan nan nan nan nan -360 -327 -293 -293 -241 -192 -153 -153 -130 -120 -124 -144 -144 -177 -188 nan nan -128 -114 -112 -112 -99 -89 -89 -74 -61 -35 -35 -5
-0 -0 -0 -1 -1 nan nan nan nan nan nan nan nan nan nan nan nan nan nan nan nan nan nan nan nan nan nan nan nan nan nan nan nan nan nan nan nan nan nan nan nan nan nan nan nan nan nan nan nan nan nan nan nan nan nan nan nan nan nan nan nan -313 -265 -225 -225 -203 -194 -199 -210 -210 -223 -221 nan nan -140 -131 -112 -112 -78 -63 -63 -62 -59 -34 -34 -2
-0 -0 -0 -0 -0 -0 nan nan nan nan nan nan nan nan nan nan nan nan nan nan nan nan nan nan nan nan nan nan nan nan nan nan nan nan nan nan nan nan nan nan nan nan nan nan nan nan nan nan nan nan nan nan nan nan nan nan nan nan nan nan nan nan nan nan nan -267 -255 -247 -240 -240 -239 -233 nan nan nan -163 nan nan -75 -55 -55 -48 -52 -39 -39 -3
-2 -1 -0 -0 -0 -0 -0 nan nan nan nan nan nan nan nan nan nan nan nan nan nan nan nan nan nan nan nan nan nan nan nan nan nan nan nan nan nan nan nan nan nan nan nan nan nan nan nan nan nan nan nan nan nan nan nan nan nan nan nan nan nan nan nan nan nan nan nan nan -255 -255 -246 -250 nan nan nan nan nan nan -100 -58 -58 -42 -43 -42 -42 -3
-0 -1 -2 -1 -1 -0 -0 -0 -0 -0 -0 nan nan nan nan nan nan nan nan nan nan nan nan nan nan nan nan nan nan nan nan nan nan nan nan nan nan nan nan nan nan nan nan nan nan nan nan nan nan nan nan nan nan nan nan nan nan nan nan nan nan nan nan nan nan nan nan nan nan nan nan nan nan nan nan nan nan nan nan nan nan -0 -0 -0 -0 -0
-0 -0 -1 -2 -2 -0 -0 -0 -0 -0 -0 -0 -1 -1 nan nan nan nan nan nan nan nan nan nan nan nan nan nan nan nan nan nan nan nan nan nan nan nan nan nan nan nan nan nan nan nan nan nan nan nan nan nan nan nan nan nan nan nan nan nan nan nan nan nan nan nan nan nan nan nan nan nan nan nan nan nan nan nan nan nan nan nan -0 -0 -0 -0
-1 -1 -1 -1 -1 -1 -0 -1 -4 -4 -2 -0 -0 -0 nan nan nan nan nan nan nan nan nan nan nan nan nan nan nan nan nan nan nan nan nan nan nan nan nan nan nan nan nan nan nan nan nan nan nan nan nan nan nan nan nan nan nan nan nan nan nan nan nan nan nan nan nan nan nan nan nan nan nan nan nan nan nan nan nan nan nan nan nan -0 -0 -0
-1 -1 -1 -1 -1 -1 -1 -2 -4 -4 -2 -0 -0 -0 -0 -0 -0 -0 -0 nan nan nan nan nan nan nan nan nan nan nan nan nan nan nan nan nan nan nan nan nan nan nan nan nan nan nan nan nan nan nan nan nan nan nan nan nan nan nan nan nan nan nan nan nan nan nan nan nan nan nan nan nan nan nan nan nan nan nan nan nan nan nan nan nan nan -1
-0 -1 -1 -1 -1 -1 -1 -4 -5 -5 -1 -0 -0 -0 -0 -0 -0 -0 -0 -0 -0 -0 -0 nan nan nan nan nan nan nan nan nan nan nan nan nan nan nan nan nan nan nan nan nan nan nan nan nan nan nan nan nan nan nan nan nan nan nan nan nan nan nan nan nan nan nan nan nan nan nan nan nan nan nan nan nan nan nan nan nan nan nan nan nan nan nan
-1 -1 -1 -2 -2 -1 -1 -2 -1 -1 -0 -0 -0 -0 -0 -2 -2 -2 -0 -0 -0 -0 -0 -0 -0 -3 nan nan nan nan nan nan nan nan nan nan nan nan nan nan nan nan nan nan nan nan nan nan nan nan nan nan nan nan nan nan nan nan nan nan nan nan nan nan nan nan nan nan nan nan nan nan nan nan nan nan nan nan nan nan nan nan nan nan nan nan
-0 -1 -1 -2 -2 -2 -1 -1 -0 -0 -0 -0 -0 -0 -0 -1 -1 -1 -1 -1 -1 -1 -1 -0 -0 -0 -4 nan nan nan nan nan nan nan nan nan nan nan nan nan nan nan nan nan nan nan nan nan nan nan nan nan nan nan nan nan nan nan nan nan nan nan nan nan nan nan nan nan nan nan nan nan nan nan nan nan nan nan nan nan nan nan nan nan nan nan
-0 -0 -0 -0 -0 -1 -0 -0 -0 -0 -0 -0 -0 -0 -0 -1 -1 -1 -0 -0 -0 -2 -2 -1 -1 -0 -0 nan nan nan nan nan nan nan nan nan nan nan nan nan nan nan nan nan nan nan nan nan nan nan nan nan nan nan nan nan nan nan nan nan nan nan nan nan nan nan nan nan nan nan nan nan nan nan nan nan nan nan nan nan nan nan nan nan nan nan
-0 -0 -0 -0 -0 -0 -0 -0 -0 -0 -0 -0 -0 -0 -0 -0 -0 -0 -0 -0 -0 -1 -1 -1 -1 -0 -0 -0 -0 -0 -0 -0 -0 -0 -0 nan nan nan nan nan nan nan nan nan nan nan nan nan nan nan nan nan nan nan nan nan nan nan nan nan nan nan nan nan nan nan nan nan nan nan nan nan nan nan nan nan nan nan nan nan nan nan nan nan nan nan
-0 -0 -0 -0 -0 -0 -0 -0 -0 -0 -0 -0 -0 -0 -0 -0 -0 -0 -0 -1 -1 -1 -1 -0 -0 -0 -0 -0 nan nan nan -0 -0 -0 -0 -0 nan nan nan nan nan nan nan nan nan nan nan nan nan nan nan nan nan nan nan nan nan nan nan nan nan nan nan nan nan nan nan nan nan nan nan nan nan nan nan nan nan nan nan nan nan nan nan nan nan nan
-0 -0 -0 -0 -0 -0 -0 -0 -0 -0 -0 -0 -0 -0 -0 -0 -0 -0 -0 -1 -1 -1 -1 -1 -1 -0 -0 -0 -2 -2 -6 -1 -1 -1 -0 -0 -5 -5 nan nan nan nan nan nan nan nan nan nan nan nan nan nan nan nan nan nan nan nan nan nan nan nan nan nan nan nan nan nan nan nan nan nan nan nan nan nan nan nan nan nan nan nan nan nan nan nan
-0 -0 -0 -0 -0 -0 -1 -0 -0 -0 -0 -0 -0 -0 -0 -0 -0 -0 -0 -0 -0 -0 -0 -0 -0 -1 -0 -0 -2 -2 -3 -1 -0 -0 -0 -0 -7 -7 nan nan nan nan nan nan nan nan nan nan nan nan nan nan nan nan nan nan nan nan nan nan nan nan nan nan nan nan nan nan nan nan nan nan nan nan nan nan nan nan nan nan nan nan nan nan nan nan
-0 -0 -0 -0 -0 -1 -1 -1 -0 -0 -0 -0 -0 -0 -0 -0 -0 -0 -0 -0 -0 -0 -1 -0 -0 -0 -1 -1 -4 -4 -3 -1 -0 -0 -0 -0 nan nan nan nan nan nan nan nan nan nan nan nan nan nan nan nan nan nan nan nan nan nan nan nan nan nan nan nan nan nan nan nan nan nan nan nan nan nan nan nan nan nan nan nan nan nan nan nan nan nan
-0 -1 -1 nan nan nan -1 -1 -0 -0 -0 -0 -0 -0 -0 -0 -0 -0 -0 -0 -0 -0 -1 -0 -0 -1 -1 -1 -2 -2 -2 -0 -0 -0 -0 -1 nan nan nan nan nan nan nan nan nan nan nan nan nan nan nan nan nan nan nan nan nan nan nan nan nan nan nan nan nan nan nan nan nan nan nan nan nan nan nan nan nan nan nan nan nan nan nan nan nan nan
-1 -1 nan nan nan nan -0 -0 -0 -0 -0 -0 -2 -2 -0 -0 -0 -0 -0 -0 -0 -0 -0 -1 -1 -1 -1 -1 -1 -1 -1 -0 -0 -0 -0 -1 nan nan nan nan nan nan nan nan nan nan nan nan nan nan nan nan nan nan nan nan nan nan nan nan nan nan nan nan nan nan nan nan nan nan nan nan nan nan nan nan nan nan nan nan nan nan nan nan nan nan
-3 -1 -2 -6 -6 -6 -3 -5 -0 -0 -0 -0 -0 -0 -0 -0 -0 -0 -0 -0 -0 -0 -0 -1 -1 -2 -1 -1 -0 -0 -0 -0 -0 -0 -6 -0 nan nan nan nan nan nan nan nan nan nan nan nan nan nan nan nan nan nan nan nan nan nan nan nan nan nan nan nan nan nan nan nan nan nan nan nan nan nan nan nan nan nan nan nan nan nan nan nan nan nan
-13 -3 -3 -5 -5 -7 -6 -5 -2 -2 -0 -0 -0 -0 -0 -0 -0 -0 -0 -0 -0 -0 -2 -2 -2 -2 -1 -0 -0 -0 -1 -1 -1 -1 -6 -0 nan nan nan nan nan nan nan nan nan nan nan nan nan nan nan nan nan nan nan nan nan nan nan nan nan nan nan nan nan nan nan nan nan nan nan nan nan nan nan nan nan nan nan nan nan nan nan nan nan nan
-7 -5 -6 -9 -9 -7 -8 -12 -9 -9 -7 -7 -8 -8 nan -0 -0 -0 -0 -0 -0 -1 -2 -1 -1 -1 -1 -0 -0 -0 -3 -7 -2 -2 -0 -0 nan nan nan nan nan -0 nan nan nan nan nan nan nan nan nan nan nan nan nan nan nan nan nan nan nan nan nan nan nan nan nan nan nan nan nan nan nan nan nan nan nan nan nan nan nan nan nan nan nan nan
-4 -6 -9 -6 -6 -0 -0 -0 -0 -0 -2 -11 -5 -5 -2 -0 -0 -0 -0 -0 -0 -0 -0 -0 -0 -1 -3 -2 -0 -0 -1 -9 -3 -3 -0 -0 -3 -3 nan nan nan -0 nan nan nan nan nan nan nan nan nan nan -0 -0 nan nan nan nan nan nan nan nan nan nan nan nan nan nan nan nan nan nan nan nan nan nan nan nan nan nan nan nan nan nan nan nan
-0 -0 -0 -0 -0 -0 -0 -0 -0 -0 -0 -0 -8 -8 -8 -2 -0 -0 -0 -0 -0 -0 -0 -0 -0 -3 -5 nan -1 -1 -0 -2 -3 -3 -0 -0 -1 -1 nan nan nan nan nan nan nan nan nan nan nan nan nan nan nan nan nan nan nan nan nan nan nan nan nan nan nan nan nan nan nan nan nan nan nan nan nan nan nan nan nan nan nan nan nan nan nan nan
-0 -0 -0 -0 -0 -0 -0 -0 -0 -0 -0 -0 -0 -0 -2 -3 -0 -0 -0 -0 -0 -0 -0 -0 -0 -1 -3 -6 -3 -3 -1 -1 -2 -2 -3 -0 -0 -0 nan nan nan nan nan nan nan nan nan nan nan nan nan nan nan nan nan nan nan nan nan nan nan nan nan nan nan nan nan nan nan nan nan nan nan nan nan nan nan nan nan nan nan nan nan nan nan nan
-0 -0 -0 -0 -0 -0 -0 -0 -0 -0 -0 -0 -0 -0 -0 -4 -1 -1 -0 -0 -0 -0 -0 -0 -0 -0 -1 -2 -3 -3 -1 -0 -1 -1 -1 -0 nan nan nan nan nan nan nan nan nan nan nan nan nan nan nan nan nan nan nan nan nan nan nan nan nan nan nan nan nan nan nan nan nan nan nan nan nan nan nan nan nan nan nan nan nan nan nan nan nan nan
-11 -0 -0 -0 -0 -0 -0 -0 -0 -0 -0 -0 -0 -0 -0 -5 -1 -1 -1 -1 -1 -0 -0 -0 -0 -0 -0 -1 -2 -2 -0 -0 -5 -5 -9 -0 nan nan nan nan nan nan nan nan nan nan nan nan nan nan nan nan nan nan nan nan nan nan nan nan nan nan nan nan nan nan nan nan nan nan nan nan nan nan nan nan nan nan nan nan nan nan nan nan nan nan
nan nan nan nan nan nan nan nan -10 -10 -0 -0 -0 -0 -0 -6 -3 -3 -2 -1 -1 -0 -0 -0 -0 -0 -0 -0 -0 -0 -0 -1 -10 -10 -4 -0 -3 -3 nan nan nan nan nan nan nan nan nan nan nan nan nan nan nan nan nan nan nan nan nan nan nan -0 nan nan nan nan nan nan nan nan nan nan nan nan nan nan nan nan nan nan nan nan nan nan nan nan
-13 -10 -20 nan nan nan nan nan nan nan nan nan nan nan -7 -4 nan nan -6 -5 -5 -2 -0 -0 -0 -0 -0 -0 -0 -0 -0 -0 -0 -0 -0 -0 -0 -0 nan nan nan nan nan nan nan nan -8 nan nan nan nan nan nan nan nan nan nan nan nan nan nan nan nan nan nan nan nan nan nan nan nan nan nan nan nan nan nan nan nan nan nan nan nan nan nan nan
-5 -8 -15 -16 -16 nan nan nan nan nan nan nan nan nan nan nan nan nan nan nan nan -5 -2 -0 -0 -0 -0 -0 -0 -0 -0 -0 -0 -0 -0 -0 -0 -0 -0 -0 -0 -6 nan nan nan nan nan nan nan nan nan nan nan nan nan nan nan nan nan nan nan nan nan nan nan nan nan nan nan nan nan nan nan nan nan nan nan nan nan nan nan nan nan nan nan nan
-9 -10 -13 -20 -20 nan nan -26 nan nan nan nan nan nan nan nan nan nan nan nan nan nan nan -2 -2 -0 -0 -0 -1 -1 -2 -3 -0 -0 -0 nan -0 -0 -0 -0 -0 -0 -3 nan nan nan nan nan nan nan nan nan nan nan nan nan nan nan nan nan nan nan nan nan nan nan nan nan nan nan nan nan nan nan nan nan nan nan nan nan nan nan nan nan nan nan
-6 -5 -11 -20 -20 -24 -16 nan nan nan -20 -27 -28 -28 nan nan nan nan nan nan nan nan nan nan nan -3 -1 -0 -0 -0 -2 -6 -3 -3 -1 nan -0 -0 -0 -0 -0 -0 -0 -4 -4 nan nan nan nan nan nan nan nan nan nan nan nan nan nan nan nan nan nan nan nan nan nan nan nan nan nan nan nan nan nan nan nan nan nan nan nan nan nan nan nan nan
-4 -5 -6 -12 -12 -9 -7 -7 -7 -7 -13 nan nan nan -29 nan nan nan nan nan nan nan nan nan nan nan -5 -3 -1 -1 -1 -4 -3 -3 -2 -2 -0 -0 -0 -0 -0 -0 -0 -0 -0 -1 nan nan nan nan nan nan nan nan nan nan nan nan nan nan nan nan nan nan nan nan nan nan nan nan nan nan nan nan nan nan nan nan nan nan nan nan nan nan nan nan
-2 -3 -4 -6 -6 -4 -2 -6 -4 -4 -5 -8 -18 -18 -30 nan nan nan nan nan nan nan nan nan nan nan -7 -6 -4 -4 -2 -2 nan nan nan nan -2 -2 -0 -0 -0 -0 -0 -0 -0 -0 -2 nan nan nan nan nan nan nan nan nan nan nan nan nan nan nan nan nan nan nan nan nan nan nan nan nan nan nan nan nan nan nan nan nan nan nan nan nan nan nan
-1 -0 -2 -3 -3 -2 -2 -2 -0 -0 -0 -3 -5 -5 -25 nan nan nan nan nan nan nan nan nan nan nan nan -5 -8 -8 -6 nan nan nan nan nan nan nan -0 -0 -0 -0 -0 -0 -0 -0 -0 -0 -0 -6 nan nan nan nan nan nan nan nan nan nan nan nan nan nan nan nan nan nan nan nan nan nan nan nan nan nan nan nan nan nan nan nan nan nan nan nan
-1 -1 -1 -0 -0 -0 -0 -0 -0 -0 -0 -1 -5 -5 -16 -20 -21 -21 -31 -31 -31 nan nan nan nan nan nan nan nan nan nan nan nan nan nan nan nan nan nan -0 -0 -1 -1 -1 -1 -0 -0 -0 -0 -1 -17 nan nan nan nan nan nan nan nan nan nan nan nan nan nan nan nan nan nan nan nan nan nan nan nan nan nan nan nan nan nan nan nan nan nan nan
-0 -0 -0 -0 -0 -0 -0 -0 -0 -0 -2 -1 -1 -1 -5 -6 -15 -15 -26 -16 -16 nan nan nan nan nan nan nan nan nan nan nan nan nan nan nan nan nan nan -0 -0 -0 -1 -1 -1 -1 -0 -0 -0 -1 -4 -18 nan nan nan nan nan nan nan nan nan nan nan nan nan nan nan nan nan nan nan nan nan nan nan nan nan nan nan nan nan nan nan nan nan nan
-0 -0 -0 -0 -0 -0 -0 -0 -2 -2 -3 -2 -5 -5 -4 -3 -5 -5 -4 -8 -8 nan nan nan nan nan nan nan nan nan nan nan nan nan nan nan nan nan nan -1 -1 -0 -1 -1 -1 -1 -1 -0 -0 -0 -1 -7 nan nan nan nan nan nan nan nan nan nan nan nan nan nan nan nan nan nan nan nan nan nan nan nan nan nan nan nan nan nan nan nan nan nan
-0 -0 -0 -0 -0 -0 -1 -4 -3 -3 -3 -7 -4 -4 -4 -2 -1 -1 -3 -4 -4 -15 nan -13 -13 -10 nan -9 nan nan nan nan nan nan nan nan nan nan nan nan nan -1 -1 -0 -0 -1 -1 -1 -1 -1 -1 -3 -6 -6 nan nan nan nan nan nan nan nan nan nan nan nan nan nan nan nan nan nan nan nan nan nan nan nan nan nan nan nan nan nan nan nan
-0 -0 -0 -2 -2 -3 -3 -3 -2 -2 -3 -5 -4 -4 -6 -5 -2 -2 -1 -1 -1 -3 -2 -3 -3 -3 -3 -9 nan nan nan nan nan nan nan nan nan nan nan nan nan -6 -1 -0 -0 -0 -2 -1 -1 -1 -3 -5 -4 -4 -6 nan nan nan nan nan nan nan nan nan nan nan nan nan nan nan nan nan nan nan nan nan nan nan nan nan nan nan nan nan nan nan
-0 -1 -4 -6 -6 -6 -3 -3 -4 -4 -4 -4 -4 -4 -6 -7 -3 -3 -1 -2 -2 -1 -1 -3 -3 -4 -3 -5 -11 -11 nan nan nan nan nan nan nan nan nan nan nan nan -3 -0 -0 -0 -0 -1 -1 -3 -7 -10 -4 -4 -2 nan nan nan nan nan nan nan nan nan nan nan nan nan nan nan nan nan nan nan nan nan nan nan nan nan nan nan nan nan nan nan
-4 -3 -4 -2 -2 -3 -4 -4 -4 -4 -5 -3 -5 -5 -7 -7 -3 -3 -2 -3 -3 -2 -3 -3 -3 -2 -3 -5 -7 -7 nan nan nan nan nan nan nan nan nan nan nan nan nan -2 -2 -0 -0 -0 -0 -2 -17 -16 -5 -5 -2 -7 -7 nan nan nan nan nan nan nan nan nan nan nan nan nan nan nan nan nan nan nan nan nan nan nan nan nan nan nan nan nan
-5 -5 -5 -6 -6 -6 -2 -4 -6 -6 -5 -5 -6 -6 -8 -10 -8 -8 -3 -4 -4 -3 -3 -3 -3 -1 -1 -3 -5 -5 nan nan nan nan nan nan nan nan nan nan nan nan nan -7 -7 -3 -0 -0 -0 -0 -1 -3 -3 -3 -3 -3 -3 -9 nan nan nan nan nan nan nan nan nan nan nan nan nan nan nan nan nan nan nan nan nan nan nan nan nan nan nan nan
-8 -7 -7 -8 -8 -6 -6 -7 -6 -6 -4 -4 -6 -6 -8 -11 -9 -9 -6 -5 -5 -4 -3 -3 -3 -1 -1 -2 -4 -4 -5 nan nan nan nan nan nan nan nan nan nan nan nan -12 -12 -6 -4 -5 -5 -1 -0 -0 -1 -1 -6 -6 -6 -5 -12 nan nan nan nan nan nan nan nan nan nan nan nan nan nan nan nan nan nan nan nan nan nan nan nan nan nan nan
-5 -6 -7 -7 -7 -6 -7 -7 -7 -7 -6 -6 -7 -7 -8 nan -7 -7 -7 -7 -7 -4 -1 -3 -3 -2 -2 -3 -5 -5 -4 -4 nan nan nan nan nan nan nan nan nan nan nan -17 -17 -15 -13 nan nan nan -0 -0 -0 -0 -4 -9 -9 -7 -10 -19 -19 -17 -17 nan nan nan nan nan nan nan nan nan nan nan nan nan nan nan nan nan nan nan nan nan nan nan
nan -9 -7 -8 -8 -8 -8 -9 -9 -9 -7 -6 -8 -8 nan -3 -0 -0 -5 -8 -8 -6 -4 -3 -3 -2 -2 -2 -7 -7 -3 -2 -11 -11 nan nan nan nan nan nan nan nan nan nan nan nan nan nan nan nan -28 -0 -0 -0 -1 -3 -3 -10 -15 -17 -17 -14 -12 nan nan nan nan nan nan nan nan nan nan nan nan nan nan nan nan nan nan nan nan nan nan nan
nan nan nan nan nan nan nan nan -7 -7 nan -6 -7 -7 nan nan nan nan nan -9 -9 -8 -5 -4 -4 -3 -2 -2 -4 -4 -3 -4 -7 -7 -19 nan nan nan nan nan nan -14 -11 nan nan nan nan nan nan nan nan -23 -1 -1 -0 -1 -1 -4 -10 -13 -13 -14 -14 nan nan nan nan nan nan nan nan nan nan nan nan nan nan nan nan nan nan nan nan nan nan nan
-8 -11 nan nan nan nan nan nan nan nan nan nan nan nan nan nan nan nan nan nan nan nan -7 -6 -6 -4 -2 -2 -1 -1 -0 -1 -1 -1 -9 -17 -9 -9 -4 -4 -4 -6 -3 nan nan nan nan nan nan nan nan -51 nan nan -5 -1 -1 -2 -3 -6 -6 -11 -11 -17 -17 nan nan nan nan nan nan nan nan nan nan nan nan nan nan nan nan nan nan nan nan nan
Wind_Speed
8 6 4 5 6 6 6 9 9 9 8 7 7 7 6 7 8 10 12 12 13 13 13 13 14 14 14 17 20 23 24 25 26 26 26 26 25 24 23 23 23 22 22 21 21 20 20 20 20 21 21 22 23 23 23 23 23 23 23 23 24 24 25 26 26 26 26 27 27 27 27 27 26 26 25 25 25 25 25 24 24 24 24 24 24 25
7 7 6 5 6 6 5 7 9 9 9 8 7 7 6 7 8 8 8 10 11 12 12 13 14 14 15 15 17 21 23 24 25 25 25 25 24 24 23 22 22 22 21 21 20 20 20 20 20 20 21 21 22 22 22 22 22 22 22 22 23 24 25 26 26 27 27 27 27 27 27 26 26 25 25 26 26 26 26 25 25 25 24 25 26 27
7 7 6 6 6 6 6 6 7 8 9 8 7 7 8 8 8 7 7 7 8 10 10 11 12 13 15 14 16 19 21 23 24 25 25 24 24 23 23 22 22 21 21 20 20 20 19 19 19 20 20 21 21 21 21 21 21 21 21 21 22 22 23 24 25 26 27 27 27 27 26 25 24 24 25 26 27 27 26 26 26 26 26 26 27 28
9 8 7 6 6 7 7 7 6 6 7 7 7 8 8 8 7 7 7 7 7 8 8 10 11 11 12 12 14 17 21 23 24 24 24 24 24 23 23 22 22 21 21 20 20 19 19 19 19 19 20 20 21 21 21 20 20 20 20 20 21 21 22 23 23 24 25 25 25 25 25 24 23 23 24 25 26 26 25 25 25 26 26 27 28 29
9 9 10 8 7 6 7 7 6 5 5 6 6 7 7 6 6 6 5 6 7 7 8 9 10 10 10 10 12 15 20 23 24 24 24 24 23 23 23 22 22 21 21 20 20 19 19 19 19 19 20 20 21 21 20 20 20 20 20 20 20 21 21 22 22 23 23 23 24 24 23 23 23 23 24 24 24 24 24 24 25 26 27 28 29 31
8 8 10 9 8 7 6 5 5 5 4 5 5 5 5 5 5 5 5 6 6 7 7 8 9 10 10 9 11 13 18 21 23 24 24 24 23 23 22 22 22 21 21 20 20 20 20 20 20 20 20 21 21 21 20 20 20 20 20 20 21 21 21 22 22 22 22 23 23 23 22 22 23 23 24 24 23 23 23 23 25 26 27 29 30 32
6 6 7 8 9 9 7 6 5 4 4 5 5 5 5 5 5 5 6 6 6 7 7 7 8 9 9 9 10 11 14 17 20 22 23 23 23 23 22 22 22 22 21 21 21 21 21 21 21 21 21 21 21 20 20 20 20 21 21 21 22 22 22 22 22 22 23 23 23 22 22 22 22 23 24 24 23 23 23 23 24 26 27 29 30 32
6 6 6 7 8 8 8 7 6 5 5 5 5 5 5 4 5 5 6 7 7 6 6 6 7 7 8 9 9 9 9 11 13 15 17 19 20 20 21 22 22 22 23 22 22 22 22 22 22 22 21 21 21 21 21 21 21 21 22 22 23 23 23 23 23 23 23 23 23 22 22 22 22 23 24 24 23 23 23 24 24 25 26 28 30 32
7 7 6 6 7 8 8 8 9 10 9 7 5 5 5 5 5 5 6 6 6 6 6 6 7 7 8 8 8 8 8 8 9 10 11 12 14 16 18 19 21 23 24 24 24 24 25 24 24 24 23 22 22 21 21 22 22 22 23 23 23 23 23 24 24 24 23 23 23 23 22 22 22 22 23 23 23 23 24 24 24 25 26 27 28 30
6 7 7 6 6 6 7 7 8 9 12 10 7 5 4 4 4 4 6 6 6 6 6 7 8 8 7 7 7 7 7 8 9 10 11 12 13 14 15 16 17 20 23 24 25 27 27 28 28 27 26 25 24 23 23 23 23 23 23 23 24 24 24 24 24 24 23 23 23 23 22 22 22 21 21 21 22 22 23 24 24 25 25 26 27 29
5 6 6 6 5 5 5 6 6 6 10 10 8 6 4 4 4 4 5 5 5 5 6 7 8 8 8 7 7 7 6 7 8 9 11 12 13 14 15 16 16 18 21 23 25 27 28 30 30 30 29 28 26 25 24 24 24 24 24 24 24 24 24 24 24 24 23 23 23 23 22 22 22 21 20 20 20 21 21 23 24 24 25 25 26 27
4 5 4 5 5 5 5 5 4 4 7 8 9 9 9 9 8 8 8 7 6 6 6 6 7 7 8 8 7 6 6 7 7 7 8 9 10 12 12 13 14 16 18 20 22 24 27 29 30 30 29 28 27 26 26 25 24 24 24 24 24 24 24 24 24 24 24 24 24 23 23 22 22 21 20 19 19 19 20 21 23 24 24 25 25 26
4 3 4 4 4 5 5 5 4 4 6 7 8 8 8 7 6 6 6 7 8 9 9 7 6 6 7 7 6 6 7 7 7 7 7 7 8 8 8 9 9 10 11 13 15 17 21 25 27 28 28 27 27 26 26 25 25 25 25 24 24 24 24 25 25 25 25 25 24 24 23 23 22 21 21 20 19 19 19 21 22 23 24 24 24 25
4 4 4 4 4 4 5 5 5 6 7 7 7 7 6 6 5 5 5 6 7 8 9 9 9 7 4 5 5 5 6 6 6 6 7 7 8 8 7 8 7 7 7 8 10 12 15 17 18 20 24 25 25 25 25 25 25 25 24 24 24 25 25 26 26 26 26 26 25 25 24 23 22 22 21 20 20 20 20 21 22 23 24 24 24 24
5 5 5 5 4 4 5 5 6 7 7 6 6 6 6 6 6 6 6 6 7 7 8 9 9 8 4 2 2 2 3 3 4 5 7 7 7 7 8 7 7 7 7 8 9 10 12 12 12 13 16 20 22 22 22 23 23 24 24 24 24 25 25 26 26 26 26 26 25 24 24 23 22 21 21 21 21 22 22 23 23 24 24 24 24 24
5 5 5 5 5 5 6 6 7 7 7 7 7 7 7 7 7 6 6 6 6 6 7 8 9 8 5 3 5 7 8 8 7 7 6 5 5 6 7 8 8 7 7 8 9 9 9 9 10 11 12 17 19 20 21 22 22 23 23 24 24 25 25 25 25 25 25 25 24 23 22 21 21 20 21 21 22 23 23 24 24 25 25 25 25 24
5 5 5 5 5 5 6 6 6 6 6 6 7 7 7 7 7 6 6 5 5 5 5 6 7 7 5 4 4 7 9 8 8 8 9 7 5 4 6 8 9 9 8 8 9 8 8 8 9 10 11 15 18 21 22 22 23 23 23 24 25 25 25 25 24 24 24 23 23 22 21 20 20 20 21 21 22 23 23 24 24 25 25 26 25 25
5 5 5 5 5 5 5 5 5 5 5 6 6 6 6 6 6 6 5 5 5 4 4 4 4 4 5 5 4 5 8 7 7 7 8 8 7 4 4 7 8 9 9 9 9 9 8 9 10 10 12 16 19 21 23 23 24 24 25 25 26 26 25 25 24 24 23 23 22 21 20 20 20 20 21 21 22 22 23 23 23 24 25 26 26 25
5 4 5 5 5 4 4 4 4 5 5 6 6 6 6 6 5 5 5 4 4 4 4 4 4 4 5 6 6 7 8 8 8 8 7 8 6 4 3 4 7 9 9 9 9 9 8 9 11 12 14 18 20 22 24 25 26 26 27 27 26 26 26 25 25 24 24 23 22 21 20 20 20 21 21 21 22 22 22 22 23 23 24 25 26 26
5 4 4 4 5 5 4 4 4 5 6 6 7 6 6 6 6 5 5 4 4 4 3 4 4 5 5 6 7 8 8 9 8 8 7 7 6 4 3 3 5 7 9 8 8 8 8 9 10 12 15 18 20 23 25 26 27 27 27 27 27 26 26 25 25 25 24 23 22 21 21 21 21 21 21 22 22 22 22 22 22 23 24 25 25 26
5 4 3 3 4 4 4 3 4 5 6 7 7 6 5 5 5 5 5 5 5 4 3 3 4 5 5 6 7 8 9 9 8 7 5 5 4 3 2 2 4 6 8 6 5 4 5 7 8 9 12 17 20 22 24 26 27 27 27 27 27 26 26 26 25 25 24 23 22 22 21 21 21 21 22 22 22 22 22 22 22 22 23 24 25 26
5 5 4 4 4 4 4 5 5 6 7 7 6 5 5 5 5 5 5 5 5 5 4 4 5 5 6 7 8 8 8 8 8 7 5 4 4 3 2 2 3 4 6 4 2 2 2 3 5 6 10 15 18 21 23 25 26 27 27 26 26 26 25 25 24 24 23 22 22 21 21 21 21 21 21 21 21 22 22 22 22 22 22 23 24 25
5 6 5 5 5 5 5 5 5 5 6 5 5 5 4 5 5 6 6 6 6 5 5 5 6 6 7 7 8 7 7 7 7 6 5 4 4 3 2 3 3 3 5 2 2 3 3 3 3 3 5 10 14 17 20 21 23 24 24 24 23 23 22 22 22 21 21 20 20 19 20 20 20 20 21 21 21 21 22 22 22 22 22 23 24 25
5 5 6 5 5 5 5 5 5 5 4 4 4 4 4 5 6 6 6 6 6 6 5 6 6 7 6 6 6 5 4 4 5 5 4 4 4 3 3 3 3 4 4 2 2 2 2 2 2 3 4 2 5 8 12 14 17 18 19 19 19 19 18 18 18 18 17 17 17 18 18 18 19 20 20 20 20 21 21 21 22 22 22 22 23 24
5 5 5 6 7 8 8 8 8 8 7 5 5 5 5 6 7 7 7 7 6 6 6 6 6 6 5 5 5 4 3 3 4 5 5 5 4 4 3 2 3 3 4 2 2 3 2 2 1 1 2 3 2 1 4 6 9 11 13 14 14 15 15 15 15 15 15 15 16 16 17 18 18 19 19 20 20 20 21 21 21 21 21 22 22 23
9 9 10 12 14 15 16 16 16 16 15 11 7 6 5 6 6 6 6 5 5 5 6 6 6 5 4 4 4 4 3 3 3 4 5 5 6 6 4 2 2 3 4 3 2 2 2 2 1 1 1 1 2 2 1 2 4 5 7 9 10 12 12 13 13 14 14 15 15 16 17 17 18 18 19 19 20 20 20 20 21 21 21 21 21 22
15 16 17 18 18 18 18 18 19 19 20 17 14 11 7 5 5 5 5 4 5 5 6 6 5 5 4 3 3 3 3 3 3 3 4 5 6 5 4 2 2 2 3 3 3 2 2 2 1 1 0 0 1 1 2 2 3 4 5 7 8 9 11 12 12 13 14 14 15 16 16 17 18 18 18 19 19 20 20 20 20 20 20 18 18 19
15 16 16 17 17 17 17 18 18 18 19 19 19 17 11 7 5 5 5 5 5 6 6 6 6 5 4 4 3 3 3 3 3 4 4 5 5 4 3 2 2 2 2 3 3 2 2 2 2 1 0 0 1 0 1 2 3 4 5 6 7 8 10 11 12 13 13 14 15 15 16 17 17 18 18 19 19 19 20 20 20 19 18 16 13 12
13 14 14 15 15 16 16 16 16 17 18 18 18 17 12 7 5 5 5 5 5 6 6 6 6 5 5 4 4 3 3 3 3 4 4 4 4 3 2 2 2 2 2 2 2 2 2 1 1 1 1 1 1 1 1 1 2 3 4 6 7 9 10 11 12 13 13 14 15 15 16 17 17 18 18 19 19 20 20 20 19 17 14 13 11 10
8 9 9 10 11 12 11 11 12 13 15 17 16 15 11 7 5 5 6 5 5 6 6 6 6 5 5 5 4 3 2 2 3 3 4 4 4 3 2 3 3 3 2 2 2 2 2 2 1 1 1 2 1 1 1 1 1 2 3 4 6 8 10 11 12 13 14 14 15 16 16 17 17 18 18 19 19 20 20 20 18 15 10 10 9 9
6 6 5 5 6 6 6 7 8 9 11 12 12 11 9 7 6 6 6 5 5 6 6 6 6 5 5 4 4 3 1 1 3 5 6 5 4 3 3 3 3 2 2 2 2 2 3 2 2 2 2 2 1 1 1 1 1 2 2 3 4 6 8 10 11 12 13 14 15 16 16 17 17 18 19 19 20 20 21 21 18 14 10 9 9 9
6 5 5 4 4 4 4 5 5 6 6 7 7 7 7 7 7 6 6 6 6 6 6 6 6 6 5 5 4 3 2 2 5 8 9 6 5 3 3 3 3 3 2 1 1 1 2 2 2 2 2 2 2 1 1 1 2 2 2 2 3 4 7 8 9 9 10 12 14 15 16 17 18 18 19 20 20 21 21 21 19 15 10 9 9 10
6 5 4 4 4 4 4 4 4 4 5 5 5 5 6 6 7 7 6 6 5 5 6 6 6 6 6 6 5 5 4 4 6 9 10 6 5 4 4 4 4 4 2 1 1 1 2 2 2 2 2 2 2 2 1 1 2 2 2 3 3 4 5 5 6 6 7 8 10 12 14 16 17 18 19 20 21 21 21 22 20 17 12 10 10 10
6 5 5 5 4 4 4 4 4 4 4 4 5 5 5 6 6 6 6 5 5 5 5 5 6 6 6 6 6 5 5 5 7 8 8 5 4 4 6 7 7 6 4 2 1 1 2 2 2 2 2 2 2 1 1 2 2 2 2 3 3 4 4 4 4 4 5 5 6 7 9 11 14 16 18 19 20 21 21 22 22 20 17 12 11 10
6 6 5 5 4 4 4 4 4 4 4 4 4 5 6 6 6 6 5 5 5 5 5 5 5 5 6 6 6 6 6 5 7 8 7 4 3 3 4 5 6 7 6 4 3 2 2 2 2 2 2 2 2 2 1 1 2 2 2 3 3 4 4 4 3 3 4 4 4 5 6 7 8 11 13 16 18 19 21 22 23 22 20 17 14 12
6 6 6 5 5 5 5 5 5 5 4 4 4 5 5 6 6 6 5 5 5 5 5 5 5 5 5 6 6 7 7 7 8 8 8 5 4 3 4 4 5 7 7 7 5 4 3 2 2 2 2 3 3 2 2 1 1 1 2 3 3 4 4 4 4 3 3 4 4 4 5 5 6 8 10 13 16 18 21 22 24 24 22 20 18 16
6 6 6 6 6 6 6 6 6 6 6 5 5 5 5 5 6 6 6 6 6 6 6 6 6 6 7 7 7 7 8 8 8 9 9 7 5 4 4 4 5 6 7 7 7 6 4 3 3 3 3 3 3 3 2 1 1 1 2 3 3 4 4 4 4 4 4 4 4 4 5 5 6 7 8 11 14 17 20 22 24 24 23 22 20 19
7 7 7 6 6 6 7 7 7 7 7 7 7 7 6 6 6 6 6 6 6 6 6 6 6 7 9 9 10 9 9 10 10 11 11 9 7 5 5 6 6 6 6 7 7 7 7 5 4 3 3 3 4 3 2 1 1 1 2 2 3 3 3 3 3 3 4 4 4 5 5 5 5 6 6 8 9 11 13 16 19 21 22 20 20 20
7 7 7 7 7 7 7 8 8 8 8 8 8 8 7 7 7 7 6 6 6 6 6 6 6 7 8 9 10 11 11 10 11 11 11 9 7 6 6 6 7 7 6 6 7 7 8 7 5 4 3 3 3 3 2 2 2 2 2 1 2 2 3 3 3 3 4 4 4 4 4 5 5 5 6 6 7 9 10 11 13 15 16 14 14 16
8 7 7 8 8 8 8 8 8 8 8 9 9 9 8 7 7 6 5 6 6 6 7 7 7 6 7 7 8 9 9 8 8 9 8 7 6 5 6 6 7 7 7 6 6 7 7 7 7 6 4 3 3 2 2 2 3 3 2 1 2 2 3 3 3 3 3 4 4 4 4 4 5 5 6 7 8 9 10 10 11 12 13 11 11 11
8 8 8 8 8 8 8 8 8 8 8 8 8 8 7 7 7 7 7 6 6 5 6 6 6 6 6 6 6 6 7 7 7 7 6 7 7 6 5 6 6 7 7 7 7 7 7 7 8 7 6 5 4 3 3 3 3 4 4 3 3 3 2 3 3 3 3 4 4 4 4 4 5 5 6 7 8 9 9 10 11 12 12 10 10 10
9 9 8 8 8 8 8 8 8 8 8 8 7 7 7 7 7 8 8 8 7 6 5 5 6 7 7 7 6 6 6 6 7 7 8 8 8 7 6 6 6 6 7 7 7 7 7 7 7 7 6 5 4 4 3 3 3 4 4 4 3 2 2 2 3 3 3 3 4 4 5 5 5 6 6 7 7 7 8 10 11 12 12 10 10 10
9 8 8 8 8 8 8 8 8 8 7 7 7 7 7 7 7 8 8 8 8 8 8 7 7 7 8 7 7 6 6 6 6 7 8 8 8 8 7 7 7 7 7 7 7 7 7 7 7 7 6 4 4 4 4 3 3 3 4 4 3 2 2 2 2 3 3 3 3 4 4 4 5 5 5 5 6 6 7 8 10 12 12 11 10 10
8 8 8 8 8 8 8 8 7 7 7 7 7 7 7 7 7 8 8 8 8 8 8 8 7 7 7 7 7 7 7 6 6 7 7 8 8 8 8 8 8 8 7 7 7 7 7 7 6 5 4 4 4 4 4 3 3 3 3 4 4 4 4 2 2 3 3 3 3 3 4 4 4 4 4 4 4 5 6 7 8 9 10 10 9 9
8 8 8 8 8 8 8 8 8 8 8 8 8 7 7 7 7 7 7 7 8 8 8 8 7 6 6 6 6 6 7 7 7 7 6 7 9 9 8 7 7 7 7 7 7 7 7 7 6 5 4 4 4 4 5 4 3 3 3 4 4 5 5 3 2 3 3 3 3 3 3 3 3 4 4 5 5 5 6 7 8 9 9 9 9 9
7 8 8 8 8 8 9 9 9 8 8 8 8 8 8 7 7 7 7 8 8 8 8 7 7 6 7 7 7 6 6 7 7 7 7 7 7 6 6 6 6 6 7 6 6 6 6 6 7 7 6 5 5 5 5 5 4 3 3 3 4 4 4 3 3 3 4 4 4 4 3 3 3 4 5 5 5 5 5 7 8 9 9 10 10 9
8 8 8 8 8 8 8 8 8 8 9 9 8 8 8 8 8 8 7 8 8 8 8 7 7 7 7 7 7 7 7 7 8 8 8 8 7 6 6 6 6 6 6 7 7 7 7 6 6 6 6 6 5 5 4 4 4 4 3 3 3 4 4 4 3 3 4 4 4 4 3 3 3 4 4 5 5 5 5 5 6 7 8 9 9 9
8 8 8 8 8 8 8 8 8 8 9 9 9 8 8 8 9 9 8 8 8 8 8 7 7 7 8 7 7 7 7 8 7 7 8 8 7 7 6 6 6 6 6 6 7 7 7 6 6 6 5 5 5 5 4 3 3 4 3 3 4 4 5 4 4 3 4 4 4 5 5 4 4 4 4 4 5 5 5 5 5 5 6 7 8 9
7 7 8 8 8 8 8 8 8 8 9 9 9 9 8 9 10 10 8 8 8 7 7 8 8 8 8 8 7 7 8 7 7 7 7 6 6 6 6 6 6 6 6 6 5 5 5 5 5 6 5 4 5 5 6 5 4 3 3 3 4 4 5 4 4 4 4 4 4 5 5 5 5 4 4 5 5 5 6 5 5 4 5 6 7 9
7 7 7 7 7 8 8 8 8 8 8 9 9 9 9 8 8 7 7 7 7 7 7 8 8 8 8 8 8 8 8 7 7 6 6 6 5 6 6 6 7 7 7 7 6 5 5 4 4 4 5 5 5 5 5 5 5 4 3 3 3 4 4 4 4 4 5 4 5 5 5 5 4 4 4 5 5 5 5 5 5 5 4 5 6 8
7 7 7 7 7 7 7 8 8 8 8 9 9 9 9 8 8 7 6 7 7 7 7 7 8 8 8 9 9 9 9 8 8 8 7 6 6 6 7 7 7 8 8 8 7 6 5 5 4 4 3 4 5 5 4 4 4 4 4 3 3 3 3 4 4 4 5 5 5 5 5 5 5 5 4 5 5 5 5 6 6 6 5 5 6 7
Wind_Direction
263 259 239 209 206 212 220 213 214 217 222 221 220 219 218 217 220 223 221 219 219 219 220 222 223 223 222 219 217 216 216 215 216 216 216 215 215 215 215 216 217 219 220 220 220 220 220 219 220 220 221 222 222 222 222 221 221 221 220 219 219 218 217 217 217 216 216 215 214 213 213 212 211 210 209 208 208 208 208 208 207 206 204 203 203 203
275 268 259 223 212 215 227 214 211 213 218 218 218 215 211 213 217 222 223 222 221 220 220 222 224 224 223 221 218 217 216 216 216 215 215 214 214 213 214 214 216 218 219 220 221 221 220 220 220 221 221 221 222 222 222 222 222 222 222 221 221 220 220 219 219 219 218 218 217 216 215 214 212 211 210 209 208 208 208 207 207 205 204 202 202 203
308 292 278 253 237 233 237 224 218 216 217 218 217 213 208 210 213 216 218 220 222 223 223 223 224 225 224 223 219 216 216 216 216 215 215 214 213 212 212 213 214 215 217 218 219 220 220 220 221 221 222 222 222 222 222 222 222 222 223 223 223 222 222 222 221 221 220 219 219 218 217 217 216 215 213 211 210 209 209 208 207 206 204 202 202 202
328 319 311 295 273 257 251 241 232 226 222 223 220 216 209 209 212 214 214 215 219 222 226 225 224 224 224 223 219 215 213 214 214 214 214 213 212 211 210 211 212 213 214 215 216 218 219 219 220 221 222 223 223 222 222 222 222 222 223 223 224 224 224 224 223 223 222 221 220 219 218 219 219 220 218 215 214 214 215 214 211 208 204 202 202 202
335 332 327 319 305 283 266 256 247 240 233 231 226 220 213 213 214 215 215 215 217 221 225 226 225 224 224 222 218 214 210 210 211 212 212 211 210 209 208 209 209 210 211 212 213 215 216 217 219 220 222 223 223 223 223 222 222 222 222 223 223 224 225 225 225 224 224 223 222 220 218 218 219 220 221 220 221 222 224 221 216 211 206 203 202 202
332 331 329 325 320 311 297 276 262 253 245 240 235 229 224 221 220 220 219 219 220 222 225 225 225 225 225 224 219 213 209 209 209 209 209 208 207 207 206 206 206 207 208 209 210 212 213 215 217 219 221 223 224 224 224 224 223 222 222 222 223 223 224 224 225 225 225 224 223 221 219 217 217 218 220 222 224 226 226 223 219 214 209 205 203 203
324 326 327 327 325 323 319 308 293 273 255 247 240 235 233 231 229 227 226 223 223 225 227 228 227 227 228 228 225 220 214 210 209 208 208 207 207 206 206 206 206 206 207 208 209 211 213 215 216 219 221 223 224 226 226 226 225 224 223 223 223 223 223 224 224 224 225 225 224 223 220 218 216 216 217 219 222 224 224 222 220 217 213 209 205 203
323 326 331 330 329 327 327 328 327 318 295 269 249 237 232 232 232 232 232 230 229 228 229 231 231 230 230 229 229 228 224 218 214 212 210 210 210 210 210 210 210 210 211 212 213 215 217 219 220 222 223 225 226 227 228 227 226 226 225 224 224 224 224 223 223 224 224 224 224 223 222 220 217 216 215 216 217 218 220 221 222 222 220 215 210 206
326 328 331 332 330 329 328 334 336 333 323 301 275 248 232 231 233 235 236 237 234 230 228 231 233 233 232 229 228 229 229 228 227 224 220 218 218 218 217 218 218 217 218 219 220 222 224 226 227 228 228 228 228 228 228 228 227 226 226 225 225 224 224 224 223 223 223 223 223 223 223 221 219 217 216 214 214 214 216 220 223 226 226 221 216 211
328 329 328 329 328 327 326 328 330 329 326 316 301 277 244 243 245 247 243 242 239 235 233 233 235 236 236 232 228 227 228 232 234 233 232 230 228 227 226 227 226 226 227 227 228 228 230 230 231 231 230 229 227 227 226 226 226 225 225 225 224 224 224 224 223 223 223 222 223 223 223 222 221 219 217 216 214 214 216 220 224 226 227 225 222 218
331 331 329 327 326 325 324 319 318 323 331 329 330 337 354 356 342 318 292 276 264 253 245 242 240 239 240 237 232 229 228 233 236 237 236 234 232 231 231 232 233 233 234 233 233 233 233 232 231 230 228 226 225 223 222 223 223 223 223 223 223 223 224 224 223 223 222 222 222 221 222 221 221 220 219 217 216 216 217 219 222 224 225 226 224 221
329 329 328 327 326 325 323 315 314 326 347 348 354 2 13 14 4 348 335 331 325 312 286 264 251 244 241 239 236 231 228 232 234 235 235 234 233 232 232 233 235 236 236 237 237 236 234 233 230 228 226 223 221 219 218 219 220 220 221 222 222 223 224 224 224 223 222 221 220 219 219 219 219 219 219 218 218 218 218 219 219 220 221 222 223 222
324 324 322 325 326 325 323 318 325 348 8 5 3 1 360 0 355 347 340 343 342 338 327 313 292 264 246 240 235 232 231 233 233 232 230 230 228 226 228 230 232 233 234 236 238 237 235 232 229 226 223 221 218 216 215 216 217 218 220 221 222 224 225 225 224 223 221 219 218 217 216 216 217 217 218 218 218 219 219 218 217 217 216 218 219 220
327 326 325 326 327 326 324 326 342 1 11 6 359 352 342 338 337 337 337 341 342 339 333 325 316 302 270 247 240 239 235 235 236 234 232 230 225 220 217 222 223 223 222 227 231 232 230 227 227 225 222 219 217 215 214 215 216 218 219 221 222 224 225 224 223 222 219 217 216 214 213 214 214 215 217 218 219 220 220 219 217 215 214 214 215 216
332 332 331 331 332 334 335 346 359 6 2 356 348 341 335 334 337 340 341 340 339 337 334 329 325 320 308 295 303 311 299 276 260 248 240 236 227 217 210 215 218 218 214 218 223 224 219 217 218 219 219 217 216 215 213 214 216 218 219 220 221 222 222 222 221 219 218 216 214 212 211 211 212 214 216 219 220 221 220 219 217 214 212 211 212 213
334 334 332 332 337 344 349 357 1 359 350 345 341 338 336 335 336 338 339 338 338 339 340 337 334 330 325 9 28 24 12 354 331 306 278 259 238 218 205 209 214 216 213 215 218 218 213 210 210 210 211 213 214 214 214 215 217 218 219 219 219 219 219 218 218 217 216 215 214 212 211 210 211 213 216 219 221 221 220 218 215 213 211 209 209 209
331 332 331 335 341 348 352 353 351 346 340 337 336 335 333 330 329 330 331 334 336 339 344 341 335 328 321 340 16 31 26 5 341 321 307 294 278 241 209 209 212 214 212 214 215 214 209 208 208 209 210 211 212 213 215 216 217 217 217 217 217 216 216 215 215 215 215 215 214 213 211 210 211 213 216 218 219 219 218 216 214 212 211 209 207 207
331 332 333 337 340 343 343 339 336 336 334 332 330 328 324 320 319 320 323 328 332 335 338 335 327 318 314 317 337 4 11 348 326 308 302 296 291 273 230 219 216 214 213 215 214 212 209 209 209 210 211 211 212 213 214 216 216 216 216 215 215 214 213 213 213 213 214 214 214 213 211 211 211 213 215 217 218 218 217 215 214 212 211 209 208 207
329 331 333 334 332 329 326 326 328 331 332 329 326 323 318 315 314 315 317 322 325 327 327 321 313 306 304 308 322 338 344 326 311 300 295 293 292 291 281 243 229 222 217 216 214 211 210 213 213 211 210 210 211 212 213 215 215 215 214 213 213 212 212 212 212 212 213 213 213 213 212 211 212 213 215 216 217 217 216 215 214 213 212 211 209 208
319 321 326 325 321 317 313 318 326 330 328 325 321 317 312 312 313 313 313 316 316 315 315 308 304 302 304 306 313 318 320 309 300 292 289 287 286 290 306 273 247 235 227 221 214 208 207 212 213 212 210 210 210 211 212 213 213 213 212 211 210 210 210 210 210 211 212 212 212 211 211 211 212 213 214 215 216 217 217 216 216 214 213 212 211 210
309 308 310 311 309 308 308 315 322 324 322 321 316 311 306 309 310 310 310 311 309 307 307 301 301 304 309 304 303 302 301 296 293 291 289 286 282 281 291 280 260 250 242 236 227 215 213 212 212 212 211 211 210 211 211 211 211 211 210 209 208 208 208 208 209 210 211 211 211 210 210 211 212 213 214 214 215 216 216 217 216 215 214 213 212 211
304 303 302 299 298 299 303 306 310 312 312 313 310 306 306 309 308 307 307 306 304 303 304 301 299 298 294 288 286 284 284 284 287 290 291 289 284 283 299 303 281 262 253 259 295 324 294 248 230 220 216 212 211 210 210 209 209 209 209 208 207 206 206 207 207 208 209 210 210 210 210 211 212 212 213 214 214 215 215 216 216 216 215 213 212 211
300 302 304 302 300 298 299 301 301 301 303 301 299 298 300 302 302 301 302 300 300 300 301 296 291 283 275 271 270 271 275 282 288 290 287 286 287 295 321 325 306 276 258 285 328 337 328 320 308 284 251 218 212 210 208 207 207 207 207 206 206 205 205 205 206 207 208 209 209 210 211 212 212 213 213 214 214 214 214 215 215 215 215 214 213 211
299 304 309 309 308 305 302 301 299 299 296 290 288 286 285 285 286 288 290 292 294 295 295 291 286 280 272 271 272 276 285 299 302 300 294 292 298 309 329 331 311 289 272 303 321 317 315 327 343 349 343 259 219 209 205 203 203 203 203 203 203 203 203 203 204 205 207 208 209 211 212 213 213 214 214 214 214 213 213 213 214 215 215 214 213 211
312 314 316 317 317 317 317 316 315 314 311 301 291 284 281 282 283 285 286 288 289 289 288 287 286 285 286 292 296 300 313 317 316 314 312 310 310 312 313 318 304 292 291 312 319 315 316 320 337 2 12 2 343 265 210 201 199 199 199 199 199 200 201 202 203 205 206 208 210 211 213 214 215 215 215 215 214 213 213 213 213 214 214 213 212 211
332 329 325 323 321 321 321 321 322 323 323 318 311 302 294 292 291 290 290 289 290 290 290 288 287 289 295 300 302 304 312 317 318 318 315 308 304 300 294 292 286 284 290 299 307 311 316 313 319 346 32 16 1 343 307 244 217 208 204 203 203 202 203 203 204 205 207 209 210 212 214 215 215 216 216 215 214 214 213 213 213 213 213 212 211 210
334 329 326 324 323 323 324 325 325 325 325 324 323 321 315 309 303 299 298 300 301 300 297 297 297 298 299 298 296 297 303 303 299 292 288 284 284 284 280 272 267 275 284 286 285 282 285 281 279 278 253 65 41 348 296 273 254 240 232 223 218 214 211 210 209 209 210 211 212 214 215 216 216 216 216 216 215 214 213 212 212 211 211 211 211 210
333 329 326 325 324 324 325 325 326 326 326 327 327 328 327 322 312 306 305 309 309 306 302 303 305 305 305 303 299 295 292 287 278 268 262 262 264 267 272 276 274 271 272 279 275 267 257 253 254 257 267 37 53 7 275 264 257 252 248 241 236 231 226 221 218 216 215 215 216 216 217 217 217 217 217 216 215 214 213 212 211 210 209 208 209 210
328 325 322 321 321 321 323 323 323 324 326 329 332 334 335 328 317 310 307 309 307 304 301 303 304 304 306 305 302 295 282 272 267 266 267 267 268 274 299 313 309 298 287 290 292 289 278 270 278 317 347 11 16 4 301 270 257 251 250 247 244 240 235 231 227 224 221 220 220 219 219 219 218 217 217 216 215 213 212 210 209 208 207 207 207 207
322 319 315 314 315 316 318 317 318 320 324 329 332 335 336 331 323 316 313 312 309 305 302 302 303 304 307 307 305 298 276 263 275 289 303 299 299 306 327 324 319 314 313 315 316 313 308 311 331 358 3 4 358 341 300 267 254 250 251 249 246 243 238 234 231 229 227 225 223 222 221 220 219 218 216 215 214 212 211 208 206 205 204 204 203 201
316 313 307 305 306 307 309 309 311 315 320 326 330 334 335 333 329 326 324 323 319 314 309 307 307 307 309 309 306 301 290 293 337 346 346 326 314 307 311 307 303 301 306 318 322 320 313 317 330 347 4 1 348 316 255 232 231 238 246 250 249 245 239 234 232 230 230 228 227 225 223 221 219 217 216 214 213 211 209 206 204 202 200 198 197 195
315 312 308 305 302 301 303 304 306 310 314 320 325 329 331 332 331 330 329 329 326 322 317 314 313 312 311 308 303 300 303 332 2 5 358 340 321 307 301 295 290 286 279 286 303 306 303 308 319 335 350 352 339 316 281 236 226 227 234 245 251 247 238 232 230 230 231 230 229 227 224 222 219 217 215 213 211 209 207 204 202 199 196 193 191 189
316 314 311 309 306 303 301 301 302 303 306 311 317 322 326 327 327 326 324 324 324 322 319 317 317 316 314 310 305 301 303 323 349 358 357 343 326 317 316 310 303 296 286 269 242 234 251 276 298 317 329 329 322 308 293 253 232 223 223 235 246 249 242 235 231 230 231 230 229 227 224 221 219 216 214 212 210 208 205 202 199 196 192 188 185 182
317 315 313 311 307 304 301 299 298 299 301 305 313 318 321 320 319 318 316 316 315 315 314 314 314 314 314 311 306 303 302 313 330 339 343 334 319 311 313 311 309 306 298 285 260 235 233 248 269 296 309 311 304 290 279 257 241 231 224 230 240 247 250 241 236 232 230 228 227 226 223 220 218 215 213 211 209 207 204 200 196 193 190 185 180 176
320 320 319 317 314 312 310 309 306 303 302 304 310 315 317 315 312 310 308 307 306 305 304 305 305 305 306 305 303 301 301 307 316 320 320 314 305 300 302 304 308 310 306 297 286 269 257 245 238 245 280 293 292 284 266 250 248 249 245 237 240 245 250 247 242 236 231 227 225 223 219 216 214 212 211 209 207 205 201 197 194 191 188 185 180 175
326 326 327 326 325 325 326 324 321 317 314 311 310 311 311 309 307 305 303 301 300 298 297 296 295 294 295 294 294 295 298 302 305 306 304 300 294 290 288 292 301 307 306 303 299 290 276 259 237 227 238 262 274 280 278 270 267 261 253 243 241 244 249 248 245 239 233 228 225 221 217 212 210 208 208 205 203 200 198 194 192 189 187 184 181 177
331 331 332 333 333 334 335 333 331 329 327 323 319 314 310 305 302 301 300 298 296 294 294 292 291 290 290 290 289 289 292 295 295 295 293 290 285 280 277 283 289 293 296 299 299 298 290 279 262 242 232 239 248 259 266 285 291 263 243 235 235 239 248 250 246 241 235 230 226 221 216 212 208 206 204 200 198 196 194 191 189 187 185 183 181 178
335 334 334 337 339 340 339 336 335 334 332 328 323 318 312 305 300 297 296 295 294 293 293 294 294 293 291 289 287 285 285 285 284 284 284 282 278 274 273 277 278 279 280 287 291 293 291 284 274 259 243 236 235 234 225 210 215 233 237 232 231 236 245 251 251 246 239 233 227 221 215 211 208 204 199 194 191 191 191 191 189 186 183 182 180 178
336 336 336 340 342 343 341 338 335 333 330 326 323 319 314 308 302 298 294 293 294 294 293 295 295 294 292 289 287 284 283 280 279 278 278 275 272 269 269 273 274 275 275 278 282 285 285 282 277 270 262 252 241 229 208 195 198 210 223 246 253 249 242 244 247 247 243 236 229 221 214 209 205 201 196 188 185 184 186 186 186 184 181 179 178 177
335 335 336 339 341 340 337 334 331 328 325 323 321 320 318 315 313 308 303 301 299 298 296 295 293 292 289 287 286 285 284 282 280 279 277 274 269 266 267 271 275 279 280 279 278 279 280 280 279 276 273 268 257 239 215 205 200 196 192 228 251 245 227 222 230 239 244 238 229 221 212 206 202 200 196 189 186 185 184 182 181 179 177 175 173 172
334 334 335 336 336 334 331 328 325 323 321 321 322 323 323 325 324 322 320 316 311 305 302 303 301 298 295 292 289 286 285 285 285 286 286 281 277 272 271 272 276 280 283 282 280 279 278 279 279 278 275 273 269 259 239 218 202 193 191 212 228 231 216 209 213 224 239 240 234 222 208 201 199 199 197 194 192 189 184 180 177 176 175 175 173 170
333 333 333 333 331 329 327 323 321 320 320 321 322 324 326 328 329 328 326 324 321 317 313 314 314 313 311 308 304 299 295 295 295 296 296 294 291 287 283 282 283 286 288 287 285 282 278 277 276 275 273 274 273 269 259 237 214 203 204 214 225 242 258 229 212 207 222 238 237 226 211 202 199 198 197 196 195 191 184 180 176 174 174 176 176 174
332 331 330 328 326 323 321 320 320 321 322 322 322 323 326 328 328 327 325 323 322 322 322 320 318 316 314 313 314 313 311 307 304 304 303 302 301 301 302 302 301 300 299 297 294 291 286 278 272 268 268 269 270 271 270 255 234 220 218 212 208 215 262 250 214 194 204 224 231 229 219 209 201 197 195 195 192 188 183 179 177 175 175 174 175 176
328 327 326 325 324 323 322 323 324 324 324 323 323 323 324 326 326 324 322 321 321 322 323 322 318 314 310 311 313 316 317 315 311 308 304 303 304 306 308 309 308 306 303 301 301 301 299 290 280 270 263 262 264 268 273 266 251 233 226 215 209 208 218 210 187 180 194 212 223 229 227 216 204 193 188 189 188 186 183 179 178 177 176 174 173 173
325 325 325 325 325 325 326 326 325 325 324 323 322 323 323 325 325 324 322 320 321 322 322 320 317 314 311 312 314 316 317 317 316 313 307 304 303 303 304 304 304 303 300 297 297 298 300 299 298 295 286 270 264 264 269 271 266 252 233 223 223 225 227 211 183 178 190 203 213 222 226 217 203 191 185 185 186 186 184 180 177 175 175 175 174 173
325 325 325 325 325 325 325 325 325 325 324 323 323 323 324 325 324 323 322 322 322 321 320 319 317 314 312 313 315 316 316 316 316 315 313 309 306 304 300 296 294 293 293 291 288 286 286 291 296 300 300 289 276 265 261 267 267 262 246 228 229 234 239 230 208 192 192 197 203 207 208 206 202 198 192 187 185 184 186 183 181 178 176 175 175 174
325 324 323 323 323 323 323 324 324 324 323 323 323 323 324 324 324 324 323 324 323 321 320 320 318 315 313 314 314 315 314 313 313 313 312 311 310 309 306 300 294 290 287 287 285 282 278 276 278 284 290 290 286 277 265 260 257 255 249 233 228 230 235 230 219 205 198 198 196 191 181 188 201 206 200 190 184 182 184 185 184 182 178 176 175 175
323 321 320 321 321 321 321 323 323 323 322 321 321 322 323 324 325 325 324 324 323 322 321 322 321 319 316 314 313 311 309 307 307 308 308 309 310 312 314 311 306 300 294 291 287 283 276 268 262 261 269 279 286 289 287 276 263 254 246 233 227 227 232 228 220 209 203 200 189 178 171 182 196 203 199 192 188 185 183 183 184 185 182 179 177 176
319 318 317 318 318 318 319 320 320 320 319 319 320 320 321 322 323 324 321 322 321 321 321 321 320 318 316 316 313 310 307 304 303 303 305 306 309 313 317 319 318 316 313 309 304 296 287 273 258 246 239 249 267 281 291 291 285 275 262 243 232 229 230 226 217 206 202 198 186 177 176 186 193 196 193 194 192 189 183 182 182 184 185 183 181 179
315 314 315 315 315 314 315 316 316 316 316 317 318 318 318 319 320 320 318 318 317 318 317 317 317 315 314 314 314 314 313 311 310 309 309 310 313 319 324 328 329 329 327 325 324 322 316 307 287 259 230 224 232 251 274 282 287 287 279 264 250 240 237 229 217 204 198 195 187 180 180 186 190 193 196 199 196 191 185 183 184 184 184 184 184 182
312 312 312 312 311 310 310 311 312 312 312 313 314 315 316 316 316 316 316 316 315 315 314 313 312 311 310 311 313 315 316 315 316 317 318 320 324 328 332 333 334 333 331 329 327 327 326 323 317 304 273 242 226 223 245 263 273 278 276 269 263 257 252 243 225 208 198 195 189 183 182 185 188 192 196 199 197 194 190 188 187 186 184 182 183 182